Regional Weather Roundup
Issued by NWS Newport/Morehead, NC

Current Version | Previous Version | Text Only | Print | Product List | Glossary On
Versions: 1 2 3 4 5 6 7 8 9 10 11 12 13 14 15 16 17 18 19 20 21 22 23 24 25 26 27 28 29 30 31 32 33 34 35 36 37 38 39 40 41 42 43 44 45 46 47 48 49 50
000
ASUS42 KMHX 040924
RWRMHX
WEATHER ROUNDUP FOR EASTERN NORTH CAROLINA
NATIONAL WEATHER SERVICE NEWPORT/MOREHEAD CITY NC
500 AM EDT MON MAY 04 2015

NOTE: "FAIR" INDICATES FEW OR NO CLOUDS BELOW 12,000 FEET
WITH NO SIGNIFICANT WEATHER AND/OR OBSTRUCTIONS TO VISIBILITY

NCZ015>017-031-032-045>047-102-103-041000-
NORTH COAST

CITY           SKY/WX    TMP DP  RH WIND       PRES   REMARKS
EDENTON        MOCLDY    54  51  91 CALM      30.25S
ELIZABETH CITY CLEAR     54  48  80 SW7       30.25S
KITTY HAWK     MOSUNNY   60  53  76 W5        30.24S
MANTEO         PTCLDY    59  53  79 CALM      30.25S

$$

NCZ045>047-081-094-103-104-041000-
CENTRAL COAST

CITY           SKY/WX    TMP DP  RH WIND       PRES   REMARKS
FRISCO         CLEAR     58  57  97 W5        30.25S
SWANQUARTER      N/A     59 N/A N/A CALM      30.21S

$$

NCZ095-097-098-100-101-041000-
SOUTHERN COAST

CITY           SKY/WX    TMP DP  RH WIND       PRES   REMARKS
BEAUFORT       CLEAR     54  53  97 E3        30.25S
CEDAR ISLAND     N/A     61 N/A N/A NW1       30.30R
JACKSONVILLE   CLEAR     51  49  92 CALM      30.25S
PINEY ISLAND   SUNNY    N/A N/A N/A SW5       30.25S
WILMINGTON     CLEAR     52  51  97 CALM      30.24S


$$

NCZ011>013-027>030-043-044-078>080-089-090>093-098-041000-
COASTAL PLAIN

CITY           SKY/WX    TMP DP  RH WIND       PRES   REMARKS
AHOSKIE        PTCLDY    52  47  83 CALM      30.25S
CLINTON        CLEAR     51  50  97 CALM      30.26R
ELIZABETHTOWN  CLEAR     52  52  99 CALM      30.24S
GOLDSBORO      CLEAR     51  49  91 CALM      30.23S
GREENVILLE     PTCLDY    54  50  87 CALM      30.26S
HAVELOCK       CLEAR     51  49  92 CALM      30.26S
KENANSVILLE    CLEAR     47  46  97 CALM      30.26S
KINSTON        CLEAR     50  50  97 CALM      30.26S
NEW BERN       CLEAR     51  48  89 CALM      30.26S
RICHLANDS      CLEAR     46  43  87 CALM      30.26S
ROCKY MOUNT    PTCLDY    52  49  89 CALM      30.25S
WASHINGTON       N/A     54  50  87 CALM      30.26R
WHITEVILLE     CLEAR     52  51  95 CALM      30.24S

$$

AMZ130-135-150-152-154-156-158-170-250-252-270-ANZ085-086-088-633-658-670-041000-
MARINE OBSERVATIONS

STATION/POSITION TIME  TEMP    WIND        PRES    WAVE   SWELL
                       AIR SEA DIR/SP/G            HT/PER HT/PER
                 (UTC) (F)     (DEG/KT/KT) (MB)    (FT/S) (FT/S)
CHESAPEAKE LIGHT 0900   61     250/ 13/ 14 1024.3
64 E VA BEACH    0850   60 60  240/ 10/ 12 1023.6    5/11   5/11
DUCK             0900   62 55  210/  5/  6 1023.1
2 E DUCK         0811      56                N/A     4/10   2/13
OREGON INLET     0900   62 63  310/  2/  3 1024.4
13E OREGON INLT  0900      55                N/A     3/11   2/11
HATTERAS CG      0900   64 62  300/  4/  5 1024.0
DIAMOND BUOY     0850   63     320/  6/  8 1024.4    5/10   5/10
CAPE LOOKOUT     0900   65     320/  3/  3 1024.1
BEAUFORT LAB     0900   61 65     CALM     1023.5
27 SE WRIGHTSVLE 0900   68 71  270/  4/  6   N/A
5 SE WRIGHTSVLE  NOT AVBL
225 S CAPE HAT   0850   68 69   60/ 10/ 14 1024.5    6/12   7/12
41 SE CHARLESTON 0850   72 73  130/  4/  6 1023.6    3/10   3/10

$$


USA.gov is the U.S. government's official web portal to all federal, state and local government web resources and services.